When you browse on this site, cookies collect data to enhance your experience and personalize the content and advertising you see.
Visit our Privacy Policy to learn more. By continuing to use the site, you agree to this use of cookies and data.
  • In Hungary
  • List of Countries
  • For 7 days
  • Water Temperature
  • Satellite Maps
  • Weather Map
  • News
  • Weather Widgets
  • user-avatar
    Login

    Hourly Weather Cobija

    Today, 26 April, Friday

    Time Temperature Precipitation Wind Pressure Humidity
    00:00 +24°C° 0 mm 0 mps 739 mmHg 84%
    01:00 +24°C° 0 mm 0 mps 739 mmHg 86%
    02:00 +23°C° 0 mm 0 mps 739 mmHg 86%
    03:00 +23°C° 0 mm 0 mps 739 mmHg 87%
    04:00 +23°C° 0 mm 0 mps 739 mmHg 88%
    05:00 +24°C° 0 mm 0 mps 739 mmHg 86%
    06:00 +24°C° 0 mm 0 mps 740 mmHg 84%
    07:00 +25°C° 0 mm 0 mps 740 mmHg 82%
    08:00 +28°C° 0 mm 0 mps 740 mmHg 72%
    09:00 +31°C° 0 mm 0 mps 740 mmHg 62%
    10:00 +33°C° 0 mm 0 mps 741 mmHg 52%
    11:00 +34°C° 0 mm 0 mps 740 mmHg 49%
    12:00 +35°C° 0 mm 0 mps 739 mmHg 46%
    13:00 +35°C° 0 mm 0 mps 738 mmHg 43%
    14:00 +34°C° 0 mm 0 mps 737 mmHg 51%
    15:00 +32°C° 0 mm 0 mps 737 mmHg 58%
    16:00 +32°C° 0 mm 1 mps 736 mmHg 65%
    17:00 +31°C° 0.2 mm 1 mps 736 mmHg 73%
    18:00 +29°C° 0.2 mm 1 mps 737 mmHg 81%
    19:00 +27°C° 0.2 mm 1 mps 737 mmHg 89%
    20:00 +27°C° 0 mm 1 mps 737 mmHg 89%
    21:00 +27°C° 0 mm 1 mps 738 mmHg 89%
    22:00 +26°C° 0 mm 1 mps 738 mmHg 88%
    23:00 +24°C° 0 mm 0 mps 738 mmHg 88%

    Tomorrow, 27 April, Saturday

    Time Temperature Precipitation Wind Pressure Humidity
    00:00 +24°C° 0 mm 0 mps 738 mmHg 88%
    01:00 +24°C° 0 mm 0 mps 738 mmHg 89%
    02:00 +24°C° 0 mm 0 mps 738 mmHg 89%
    03:00 +23°C° 0 mm 0 mps 738 mmHg 89%
    04:00 +23°C° 0 mm 0 mps 737 mmHg 89%
    05:00 +24°C° 0 mm 0 mps 738 mmHg 88%
    06:00 +24°C° 0 mm 0 mps 739 mmHg 86%
    07:00 +25°C° 0 mm 0 mps 739 mmHg 84%
    08:00 +27°C° 0.2 mm 0 mps 739 mmHg 78%
    09:00 +28°C° 0.2 mm 0 mps 739 mmHg 72%
    10:00 +32°C° 0.2 mm 1 mps 740 mmHg 66%
    11:00 +33°C° 0.2 mm 1 mps 739 mmHg 62%
    12:00 +34°C° 0.2 mm 1 mps 738 mmHg 57%
    13:00 +35°C° 0.2 mm 1 mps 737 mmHg 52%
    14:00 +33°C° 0.7 mm 1 mps 737 mmHg 63%
    15:00 +32°C° 0.7 mm 1 mps 736 mmHg 73%
    16:00 +30°C° 0.7 mm 1 mps 735 mmHg 84%
    17:00 +29°C° 0 mm 1 mps 736 mmHg 87%
    18:00 +28°C° 0 mm 1 mps 736 mmHg 90%
    19:00 +25°C° 0 mm 0 mps 737 mmHg 92%
    20:00 +25°C° 0 mm 0 mps 737 mmHg 93%
    21:00 +24°C° 0 mm 0 mps 738 mmHg 93%
    22:00 +24°C° 0 mm 0 mps 738 mmHg 94%
    23:00 +24°C° 0 mm 0 mps 738 mmHg 95%

    Day after tomorrow, 28 April, Sunday

    Time Temperature Precipitation Wind Pressure Humidity
    00:00 +24°C° 0 mm 0 mps 738 mmHg 96%
    01:00 +23°C° 0 mm 0 mps 737 mmHg 96%
    02:00 +23°C° 0 mm 0 mps 737 mmHg 97%
    03:00 +23°C° 0 mm 0 mps 737 mmHg 97%
    04:00 +23°C° 0 mm 0 mps 737 mmHg 97%
    05:00 +23°C° 0 mm 0 mps 738 mmHg 95%
    06:00 +24°C° 0 mm 0 mps 738 mmHg 92%
    07:00 +24°C° 0 mm 0 mps 739 mmHg 90%
    08:00 +27°C° 0.1 mm 0 mps 739 mmHg 79%
    09:00 +31°C° 0.1 mm 1 mps 740 mmHg 69%
    10:00 +33°C° 0.1 mm 1 mps 740 mmHg 58%
    11:00 +33°C° 0 mm 1 mps 739 mmHg 56%
    12:00 +34°C° 0 mm 1 mps 738 mmHg 55%
    13:00 +34°C° 0 mm 1 mps 737 mmHg 53%
    14:00 +33°C° 0.8 mm 1 mps 737 mmHg 65%
    15:00 +30°C° 0.8 mm 0 mps 736 mmHg 76%
    16:00 +28°C° 0.8 mm 0 mps 735 mmHg 88%
    17:00 +27°C° 0 mm 0 mps 736 mmHg 90%
    18:00 +26°C° 0 mm 0 mps 736 mmHg 92%
    19:00 +24°C° 0 mm 0 mps 737 mmHg 94%
    20:00 +24°C° 0 mm 0 mps 737 mmHg 94%
    21:00 +24°C° 0 mm 0 mps 738 mmHg 94%
    22:00 +24°C° 0 mm 0 mps 738 mmHg 94%
    23:00 +23°C° 0 mm 0 mps 738 mmHg 95%

    29 April, Monday

    Time Temperature Precipitation Wind Pressure Humidity
    00:00 +23°C° 0 mm 0 mps 737 mmHg 95%
    01:00 +23°C° 0 mm 0 mps 737 mmHg 96%
    02:00 +23°C° 0 mm 0 mps 737 mmHg 96%
    03:00 +23°C° 0 mm 0 mps 737 mmHg 96%
    04:00 +23°C° 0 mm 0 mps 737 mmHg 97%
    05:00 +23°C° 0 mm 0 mps 737 mmHg 95%
    06:00 +24°C° 0 mm 0 mps 738 mmHg 94%
    07:00 +24°C° 0 mm 0 mps 739 mmHg 92%
    08:00 +26°C° 0.6 mm 0 mps 739 mmHg 88%
    09:00 +27°C° 0.6 mm 0 mps 739 mmHg 83%
    10:00 +29°C° 0.6 mm 0 mps 739 mmHg 78%
    11:00 +31°C° 1 mm 1 mps 738 mmHg 79%
    12:00 +31°C° 1 mm 1 mps 737 mmHg 80%
    13:00 +31°C° 1 mm 1 mps 737 mmHg 81%
    14:00 +31°C° 0.4 mm 1 mps 736 mmHg 79%
    15:00 +31°C° 0.4 mm 1 mps 736 mmHg 77%
    16:00 +31°C° 0.4 mm 1 mps 735 mmHg 75%
    17:00 +30°C° 0 mm 1 mps 736 mmHg 79%
    18:00 +28°C° 0 mm 1 mps 736 mmHg 84%
    19:00 +27°C° 0 mm 1 mps 736 mmHg 88%
    20:00 +27°C° 0 mm 1 mps 737 mmHg 89%
    21:00 +26°C° 0 mm 1 mps 737 mmHg 90%
    22:00 +26°C° 0 mm 1 mps 738 mmHg 90%
    23:00 +26°C° 0.1 mm 1 mps 738 mmHg 91%

    30 April, Tuesday

    Time Temperature Precipitation Wind Pressure Humidity
    00:00 +26°C° 0.1 mm 1 mps 737 mmHg 91%
    01:00 +26°C° 0.1 mm 1 mps 737 mmHg 92%
    02:00 +25°C° 0 mm 1 mps 737 mmHg 92%
    03:00 +25°C° 0 mm 1 mps 737 mmHg 92%
    04:00 +25°C° 0 mm 1 mps 737 mmHg 91%
    05:00 +25°C° 0 mm 1 mps 738 mmHg 91%
    06:00 +26°C° 0 mm 1 mps 738 mmHg 91%
    07:00 +26°C° 0 mm 1 mps 739 mmHg 91%
    08:00 +27°C° 0 mm 1 mps 739 mmHg 84%
    09:00 +29°C° 0 mm 1 mps 739 mmHg 78%
    10:00 +30°C° 0 mm 1 mps 739 mmHg 71%
    11:00 +31°C° 0 mm 1 mps 738 mmHg 65%
    12:00 +33°C° 0 mm 1 mps 737 mmHg 58%
    13:00 +34°C° 0 mm 1 mps 736 mmHg 52%
    14:00 +34°C° 0 mm 1 mps 736 mmHg 53%
    15:00 +34°C° 0 mm 1 mps 736 mmHg 54%
    16:00 +34°C° 0 mm 1 mps 735 mmHg 56%
    17:00 +32°C° 0 mm 1 mps 736 mmHg 63%
    18:00 +29°C° 0 mm 1 mps 736 mmHg 70%
    19:00 +27°C° 0 mm 1 mps 737 mmHg 77%
    20:00 +27°C° 0 mm 1 mps 737 mmHg 77%
    21:00 +27°C° 0 mm 1 mps 738 mmHg 77%
    22:00 +26°C° 0 mm 1 mps 738 mmHg 78%
    23:00 +26°C° 0.2 mm 1 mps 738 mmHg 82%

    1 May, Wednesday

    Time Temperature Precipitation Wind Pressure Humidity
    00:00 +26°C° 0.2 mm 1 mps 738 mmHg 86%
    01:00 +25°C° 0.2 mm 1 mps 738 mmHg 91%
    02:00 +25°C° 0.2 mm 1 mps 738 mmHg 93%
    03:00 +25°C° 0.2 mm 1 mps 738 mmHg 95%
    04:00 +25°C° 0.2 mm 1 mps 738 mmHg 97%
    05:00 +25°C° 0 mm 1 mps 739 mmHg 96%
    06:00 +25°C° 0 mm 1 mps 739 mmHg 94%
    07:00 +25°C° 0 mm 1 mps 740 mmHg 93%
    08:00 +27°C° 0 mm 1 mps 740 mmHg 88%
    09:00 +28°C° 0 mm 1 mps 741 mmHg 82%
    10:00 +29°C° 0 mm 1 mps 741 mmHg 76%
    11:00 +29°C° 0.1 mm 1 mps 740 mmHg 75%
    12:00 +30°C° 0.1 mm 1 mps 739 mmHg 74%
    13:00 +31°C° 0.1 mm 1 mps 738 mmHg 73%
    14:00 +30°C° 0 mm 1 mps 738 mmHg 74%
    15:00 +28°C° 0 mm 0 mps 737 mmHg 75%
    16:00 +28°C° 0 mm 0 mps 737 mmHg 77%
    17:00 +27°C° 0 mm 0 mps 737 mmHg 81%
    18:00 +26°C° 0 mm 0 mps 738 mmHg 85%
    19:00 +25°C° 0 mm 0 mps 738 mmHg 89%
    20:00 +24°C° 1.1 mm 0 mps 739 mmHg 91%
    21:00 +24°C° 1.1 mm 0 mps 739 mmHg 94%
    22:00 +23°C° 1.1 mm 0 mps 739 mmHg 96%
    23:00 +23°C° 0.7 mm 0 mps 739 mmHg 97%
    Show more